Location: Bishausen
(51.6334°N, 9.9631°E)
Time: 20:48:07
(UTC+00:00)

Daily predictions for brighter satellites

Satellite Brightness Start Highest point End
(mag) Time Altitude Azimuth Time Altitude Azimuth Time Altitude Azimuth
Resurs 1-3 4.4 18:06:14 10° SE 18:10:09 33° ENE 18:14:06 10° N
Cosmos 1624 Rocket 4.2 18:06:02 10° S 18:11:12 55° ESE 18:16:25 10° NNE
Cosmos 1470 Rocket 3.6 18:07:49 10° S 18:12:16 73° E 18:16:46 10° NNE
Cosmos 2016 Rocket 4.3 18:06:53 10° N 18:12:45 45° ENE 18:18:36 10° SE
NOSS 0 Rocket 4.2 18:07:26 10° NNW 18:13:33 56° NE 18:19:36 10° SE
Cosmos 1420 Rocket 4.0 18:12:26 10° S 18:17:33 58° ESE 18:22:39 10° NNE
Cosmos 2173 Rocket 4.1 18:11:36 10° N 18:18:01 73° ENE 18:24:23 10° SSE
Cosmos 2123 Rocket 4.4 18:13:15 10° SSE 18:19:01 40° E 18:24:51 10° NNE
Okean-O 3.5 18:16:21 10° SE 18:20:15 31° ENE 18:24:11 10° N
SPOT 1/Viking Rocket 4.5 18:16:38 10° ESE 18:21:07 30° ENE 18:25:38 10° N
Okean 2 4.1 18:17:34 10° N 18:21:15 32° ENE 18:24:55 10° SE
Cosmos 1263 4.2 18:18:20 10° S 18:21:46 72° E 18:24:48 10° NNE
Timation 1 Rocket 4.5 18:17:43 10° S 18:23:32 54° ESE 18:29:23 10° NE
Cosmos 1000 Rocket 4.5 18:18:51 10° S 18:24:53 63° E 18:30:57 10° NNE
DMSP B5D1-3 4.5 18:22:19 10° NNE 18:27:30 75° ESE 18:32:38 10° S
Okean O Rocket 1.6 18:24:04 10° SSE 18:28:29 86° ENE 18:32:54 10° NNW
Cosmos 2242 Rocket 3.9 18:24:01 10° N 18:28:31 51° ENE 18:32:58 10° SSE
Cosmos 2100 Rocket 4.1 18:22:07 10° N 18:28:33 88° ENE 18:34:54 10° S
GEOS 3 Rocket 3.8 18:23:49 10° NE 18:29:10 61° SE 18:34:30 10° SSW
YAOGAN 1 3.7 18:26:32 10° S 18:30:43 48° W 18:34:56 10° NNW
In-Cosmos 22 4.5 18:26:22 10° NNW 18:32:00 76° W 18:37:43 10° S
USA 215 3.4 18:25:54 10° ENE 18:32:28 81° NNW 18:39:00 10° WSW
ISS -3.8 18:29:27 10° WSW 18:32:48 82° S 18:35:45 13° E
CSL-04 Rocket 3.9 18:27:30 10° SE 18:32:55 57° ENE 18:38:21 10° N
Cosmos 676 Rocket 4.3 18:28:33 10° NNW 18:33:45 70° WSW 18:38:57 10° SSE
KORONAS-FOTON 4.1 18:30:53 10° NNW 18:34:41 72° W 18:38:29 10° S
SL-27 R/B 2.1 18:32:20 10° SSW 18:35:36 70° ESE 18:38:51 10° NNE
Cosmos 1452 Rocket 4.2 18:31:13 10° SSE 18:35:49 31° ESE 18:40:26 10° NE
Cosmos 2237 Rocket 2.5 18:32:47 10° NNW 18:38:19 50° NE 18:43:20 12° SE
Exosat Rocket 3.8 18:36:44 10° SSW 18:41:57 78° ESE 18:48:49 10° NNE
USA 186 1.6 18:41:51 10° SSE 18:44:56 77° ENE 18:48:04 10° N
Meteor 1-21 4.4 18:42:08 10° NNW 18:47:45 76° W 18:53:23 10° S
Okean 3 4.3 18:43:39 10° NNW 18:47:45 53° W 18:51:52 10° S
H-2A R/B 4.3 18:47:34 14° E 18:49:21 18° ENE 18:52:20 10° NNE
Cosmos 1741 Rocket 4.0 18:44:18 10° NNW 18:49:32 68° ENE 18:54:39 10° SE
Cosmos 1707 4.2 18:49:17 10° NNW 18:52:51 39° W 18:56:22 10° SSW
Cosmos 968 Rocket 4.1 18:49:20 10° NNW 18:54:11 38° NE 18:57:25 19° ESE
Okean 1-7 4.1 18:50:06 10° NNW 18:54:19 48° W 18:58:29 10° SSW
CZ-4B R/B 4.3 18:49:01 10° S 18:54:29 49° W 18:59:58 10° NNW
IRS-1C Rocket 4.2 18:50:33 10° SE 18:55:42 57° ENE 19:00:54 10° N
Cosmos 1674 4.0 18:53:44 10° NNW 18:57:16 42° W 19:00:47 10° SSW
SJ 16-02 3.5 18:55:49 10° NNE 18:57:46 13° NE 18:59:20 11° ENE
Lacrosse 5 rocket 2.7 18:56:08 10° S 18:59:09 19° SE 18:59:09 19° SE
Cosmos 1805 3.3 18:55:30 10° S 18:59:11 51° E 19:02:56 10° NNE
Cosmos 1980 3.7 18:54:01 10° NNW 18:59:43 70° ENE 19:04:23 16° SE
Cosmos 2219 Rocket 3.7 18:55:32 10° NW 19:00:42 36° WSW 19:05:50 10° S
Cosmos 2333 Rocket 4.4 18:57:50 10° NW 19:02:28 25° WSW 19:07:04 10° SSW
Cosmos 1933 Rocket 4.1 18:59:20 10° SSW 19:03:37 62° WNW 19:07:57 10° N
Cosmos 1975 3.0 18:59:42 10° SSW 19:03:40 73° WNW 19:07:40 10° N
SJ-6B 3.4 18:59:58 10° S 19:03:51 58° W 19:07:40 10° NNW
ERS-1 Rocket 4.5 19:04:51 17° E 19:06:31 19° NE 19:10:00 10° N
Cosmos 2233 Rocket 3.9 19:01:06 10° N 19:07:16 69° ENE 19:13:25 10° SSE
Cosmos 1726 1.9 19:05:11 10° S 19:08:39 63° E 19:12:08 10° NNE
CSL-04 Debris 4.4 19:03:56 10° S 19:09:20 73° WSW 19:14:49 10° NNW
Cosmos 2061 Rocket 4.1 19:04:56 10° N 19:11:26 90° W 19:17:51 10° S
Ariane Rocket 3.9 19:09:42 22° ESE 19:11:51 31° ENE 19:16:15 10° N
Cosmos 1869 Rocket 3.5 19:08:52 10° S 19:13:11 90° E 19:17:33 10° N
COSMOS 2428 3.7 19:08:28 10° NW 19:13:55 46° WSW 19:19:21 10° S
Cosmos 1900 4.3 19:09:26 10° SW 19:14:23 88° NW 19:19:19 10° NE
Landsat 5 3.6 19:10:51 10° NNE 19:14:31 41° E 19:17:14 17° SSE
SL-14 R/B 3.2 19:12:04 10° NNW 19:15:56 83° W 19:19:23 12° S
USA 281 4.1 19:13:13 10° NNE 19:19:33 52° NW 19:25:51 10° SW
Cosmos 2297 Rocket 2.5 19:16:26 10° S 19:21:43 43° ESE 19:27:02 10° NE
ATLAS 3B R/B 4.2 19:17:00 10° WNW 19:23:27 32° N 19:30:11 10° ENE
NOSS 6 (F) 4.5 19:21:58 10° NW 19:24:54 75° NE 19:25:27 55° ESE
Cosmos 1867 3.6 19:20:04 10° SSW 19:25:21 54° ESE 19:30:41 10° NE
Cosmos 1725 Rocket 4.5 19:22:20 10° NNW 19:28:26 62° W 19:34:30 10° S
Resurs 01 Rocket 1.5 19:25:55 21° SSE 19:28:52 84° ENE 19:33:19 10° NNW
Meteor 2-5 Rocket 4.3 19:24:18 10° N 19:29:47 41° ENE 19:32:00 30° ESE
CZ-4C R/B 3.3 19:25:56 10° NW 19:32:18 48° NNE 19:36:50 24° E
CENTAUR R/B 4.0 19:24:31 10° NW 19:32:18 49° WSW 19:40:52 10° SSE
NOSS 3-2 (C) 4.2 19:25:16 10° NW 19:32:36 74° SW 19:38:47 20° SSE
Cosmos 1733 3.9 19:29:41 10° SSW 19:33:23 53° WNW 19:37:06 10° N
SPOT 3 Rocket 4.3 19:32:02 29° E 19:33:31 35° ENE 19:38:14 10° N
Cosmos 1271 Rocket 3.4 19:36:58 35° ENE 19:36:58 35° ENE 19:39:43 10° NNE
MOS 1 4.2 19:33:10 21° SSE 19:37:03 80° ENE 19:42:48 10° NNW
Cosmos 2227 Rocket 2.7 19:35:03 24° SSE 19:37:34 36° ESE 19:42:41 10° NE
CZ-4 R/B 4.2 19:35:52 10° SW 19:38:17 16° W 19:40:43 10° NW
Cosmos 1470 4.4 19:40:40 21° NE 19:40:40 21° NE 19:42:26 10° NNE
Iridium 4 Rocket 4.2 19:38:04 10° NNW 19:42:02 41° W 19:45:57 10° SSW
Terra 2.9 19:42:45 27° ENE 19:43:06 27° ENE 19:47:06 10° N
Geosat 4.5 19:40:50 21° S 19:44:10 58° WSW 19:49:09 10° NW
USA 238 DEB 4.0 19:39:01 10° NW 19:46:15 74° SW 19:50:50 27° SSE
USA 238 4.0 19:39:07 10° NW 19:46:21 74° SW 19:50:55 27° SSE
SL-16 R/B 2.4 19:42:10 10° NNW 19:47:48 56° NE 19:49:38 39° ESE
MetOp-A 4.0 19:46:21 32° SSE 19:48:53 80° ENE 19:54:05 10° NNW
Cosmos 1674 Rocket 3.4 19:47:26 10° N 19:51:49 75° E 19:52:41 55° SE
Cosmos 1733 Rocket 2.9 19:53:01 26° S 19:55:23 89° ESE 19:59:45 10° N
Okean-O 4.0 19:52:34 10° SSW 19:56:38 36° W 20:00:46 10° NNW
CARTOSAT-1 3.6 19:58:45 44° S 20:00:03 76° WSW 20:04:23 10° NNW
Meteor 2-13 Rocket 4.3 19:54:10 10° S 20:00:19 83° E 20:06:31 10° NNE
SPOT 1/Viking Rocket 4.3 19:55:57 14° S 20:00:19 50° W 20:05:25 10° NNW
Cosmos 1110 Rocket 4.1 19:57:19 10° SSW 20:02:32 77° WNW 20:07:45 10° NNE
SPOT 5 2.8 20:02:23 54° E 20:02:48 56° ENE 20:07:33 10° N
Cosmos 1378 Rocket 3.5 19:58:37 10° NNW 20:03:03 83° W 20:04:03 53° S
Cosmos 2221 Rocket 3.7 19:59:40 10° NNW 20:04:06 71° W 20:05:26 43° SSW
Cosmos 1464 Rocket 4.0 20:00:01 10° N 20:06:22 68° ENE 20:08:27 43° SE
USA 245 4.0 20:08:40 40° NNE 20:08:40 40° NNE 20:11:28 10° N
BREEZE-M DEB (TANK) 3.5 20:04:35 10° W 20:08:22 39° SW 20:08:22 39° SW
ISS -2.8 20:06:15 10° W 20:08:42 45° W 20:08:42 45° W
USA 215 3.7 20:10:32 19° ENE 20:15:14 57° N 20:21:36 10° W
ADEOS Rocket 3.3 20:15:26 47° ESE 20:17:07 60° ENE 20:24:04 10° N
Cosmos 1891 Rocket 4.4 20:11:03 10° N 20:17:14 85° W 20:19:47 38° S
Cosmos 1452 Rocket 4.5 20:12:38 10° SW 20:17:44 48° WNW 20:22:53 10° NNE
Cosmos 1766 4.1 20:17:37 33° SW 20:18:53 47° WNW 20:22:36 10° N
Cosmos 1331 Rocket 4.4 20:14:26 10° SW 20:19:33 63° WNW 20:24:43 10° NNE
Meteor 1-22 Rocket 4.3 20:20:16 51° SSE 20:21:43 68° E 20:27:45 10° NNE
Cosmos 2237 Rocket 3.4 20:17:08 10° NW 20:22:13 35° WSW 20:25:11 21° SSW
Cosmos 1908 Rocket 4.3 20:25:08 42° NNE 20:25:08 42° NNE 20:28:14 10° NNE
H-2A R/B 2.6 20:23:55 73° SW 20:24:06 75° WSW 20:28:35 10° NNW
Cosmos 1025 Rocket 4.0 20:20:42 10° N 20:23:45 37° NNE 20:23:45 37° NNE
Meteor 1-15 Rocket 4.2 20:24:43 40° S 20:26:57 87° ESE 20:32:53 10° NNE
Cosmos 1340 Rocket 4.2 20:23:30 10° N 20:25:51 31° NNE 20:25:51 31° NNE
Cosmos 2263 Rocket 4.4 20:31:41 11° NE 20:31:41 11° NE 20:31:54 10° NE
Cosmos 2346 Rocket 4.4 20:31:22 37° SSW 20:33:58 86° W 20:40:14 10° N
ATLAS CENTAUR R/B 3.9 20:19:56 10° WSW 20:34:41 85° NNW 20:40:10 18° ENE
Cosmos 968 Rocket 4.5 20:31:12 10° NW 20:36:00 40° WSW 20:37:26 33° SW
SJ 16-02 2.0 20:32:47 10° NNW 20:36:14 50° N 20:36:14 50° N
ARIANE 5 R/B 4.2 20:38:52 26° NNE 20:38:52 26° NNE 20:41:20 10° N
Lacrosse 5 rocket 3.5 20:33:22 10° SW 20:34:34 18° SW 20:34:34 18° SW
Meteor 1-12 Rocket 4.4 20:38:17 34° SSW 20:40:53 73° WNW 20:46:38 10° N
Cosmos 1975 Rocket 4.0 20:36:52 10° N 20:39:54 40° NNE 20:39:54 40° NNE
FALCON 9 R/B 4.4 20:31:16 10° WSW 20:43:47 25° SSW 20:45:16 24° SSW
ERS-1 Rocket 2.9 20:44:49 81° W 20:44:49 81° W 20:49:47 10° NNW
Meteor 1-24 Rocket 4.0 20:40:05 10° NNW 20:45:58 67° W 20:47:15 52° SSW
Cosmos 1816 Rocket 4.3 20:47:04 69° E 20:47:04 69° E 20:53:05 10° NNE
Cosmos 1634 Rocket 4.3 20:42:26 10° N 20:48:28 52° ENE 20:48:28 52° ENE
Ariane Rocket 3.7 20:49:52 44° SW 20:50:38 47° W 20:55:33 10° NNW
Cosmos 1603 4.3 20:45:34 10° NNW 20:51:00 44° NE 20:51:00 44° NE
BREEZE-M DEB (TANK) 3.6 20:45:48 10° WNW 20:50:43 48° SW 20:50:43 48° SW
NOSS 3-4 (A) 4.2 20:55:36 36° NE 20:55:36 36° NE 20:59:16 10° NE
NOSS 3-4 (C) 4.3 20:55:52 34° NE 20:55:52 34° NE 20:59:21 10° NE
Cosmos 1943 3.5 20:49:17 10° NNW 20:54:31 54° NE 20:54:31 54° NE
Spot 2 Rocket 3.8 21:01:35 61° W 21:01:35 61° W 21:06:29 10° NNW
Cosmos 2344 4.3 20:57:10 10° NW 21:05:02 56° NNE 21:08:49 38° E
Cosmos 2297 Rocket 3.3 21:00:26 10° WSW 21:05:48 43° NW 21:11:12 10° NNE
Resurs 01 Rocket 4.3 21:03:44 10° WSW 21:05:58 14° W 21:08:12 10° WNW
Cosmos 2034 Rocket 4.1 21:01:05 10° NNW 21:07:15 68° W 21:07:52 64° SW
SPOT 3 Rocket 4.4 21:12:40 42° WSW 21:12:50 43° W 21:17:50 10° NNW
Cosmos 2219 3.4 21:13:56 68° NW 21:13:56 68° NW 21:19:30 10° NNE
Tsikada Rocket 4.1 21:15:13 66° NE 21:15:13 66° NE 21:20:33 10° NNE
Meteor 2-19 Rocket 4.4 21:15:20 80° WNW 21:15:20 80° WNW 21:21:29 10° N
ATLAS 3B R/B 3.5 21:08:40 10° NW 21:15:53 49° NNE 21:17:41 42° ENE
Terra 2.9 21:21:29 41° WNW 21:21:29 41° WNW 21:25:08 10° NNW
CZ-4C R/B 2.9 21:14:19 10° NW 21:21:21 71° SW 21:21:59 68° SSW
Cosmos 2227 Rocket 3.0 21:16:00 10° SW 21:21:29 49° NW 21:27:00 10° NNE
SL-16 R/B 3.5 21:26:41 10° NW 21:31:32 31° WSW 21:31:32 31° WSW
H-2A R/B 4.3 21:49:58 10° N 21:51:45 23° N 21:51:45 23° N
Cosmos 2279 Rocket 4.4 21:51:19 10° NNW 21:56:22 60° NNW 21:56:22 60° NNW
USA 215 3.4 21:57:51 67° NNE 21:57:53 67° NNE 22:04:23 10° WNW
NOSS 3-1 (C) 4.3 21:53:29 10° NW 22:00:14 56° NE 22:00:49 55° NE
ADEOS Rocket 4.3 22:02:22 32° WSW 22:03:04 33° W 22:09:15 10° NNW
Cosmos 2263 Rocket 3.6 22:13:19 33° NNE 22:13:19 33° NNE 22:16:24 10° NNE
SJ 16-02 4.1 22:12:17 10° NW 22:13:07 13° WNW 22:13:07 13° WNW
ATLAS 2AS CENTAUR R/B 3.9 22:29:02 35° ENE 22:29:02 35° ENE 22:32:56 10° NE
ATLAS CENTAUR R/B 3.8 22:40:23 10° W 22:49:43 52° NNW 22:49:43 52° NNW
Cosmos 2082 Rocket 4.0 22:58:02 10° NNW 23:02:28 24° NE 23:02:28 24° NE
NOSS 3-1 (A) 4.2 22:57:29 10° NW 23:03:39 63° N 23:03:39 63° N
ATLAS 3B R/B 3.5 22:59:34 10° NW 23:04:55 48° WNW 23:04:55 48° WNW
Cosmos 1833 Rocket 4.2 23:09:39 10° NNW 23:12:53 33° N 23:12:53 33° N
Cosmos 2344 4.3 23:11:27 10° NW 23:18:50 58° W 23:18:50 58° W
Cosmos 2263 Rocket 4.3 23:54:56 18° NW 23:55:54 19° NNW 23:59:50 10° NNE
